Weather History for KFFO - March, 2014

Change the Weather History Date:

Tuesday, March 11, 2014

  Actual Average Record
Temperature  
Mean Temperature 54 °F -  
Max Temperature 68 °F 44 °F 70 °F (2009)
Min Temperature 41 °F 25 °F 5 °F (1999)
Degree Days  
Heating Degree Days 10    
Growing Degree Days 4 (Base 50)    
Moisture  
Dew Point 41 °F    
Average Humidity 60    
Maximum Humidity 81    
Minimum Humidity 39    
Precipitation  
Precipitation 0.00 in - - ()
Sea Level Pressure  
Sea Level Pressure 29.68 in    
Wind  
Wind Speed 7 mph (SW)    
Max Wind Speed 12 mph    
Max Gust Speed -    
Visibility 10 miles    
Events      
Averages and records for this station are not official NWS values.
T = Trace of Precipitation, MM = Missing Value Source: NWS Daily Summary

Daily Weather History Graph

Daily Weather History Graph

Search for Another Location

Airport or City:

Trip Planner

Search our weather history database for the weather conditions in past years. The results will help you decide how hot, cold, wet, or windy it might be!

Date:

Astronomy

Mar. 11, 2014 Rise Set
Actual Time 7:53 AM EDT 7:38 PM EDT
Civil Twilight 7:27 AM EDT 8:05 PM EDT
Nautical Twilight 6:55 AM EDT 8:37 PM EDT
Astronomical Twilight 6:24 AM EDT 9:08 PM EDT
Moon 3:14 PM EDT (3/11) 4:46 AM EDT (3/11)
Length of Visible Light 12h 38m
Length of Day
11h 44m
Waxing Gibbous, 78% of the Moon is Illuminated
Mar 11
Waxing Gibbous
Mar 16
Full
Mar 23
Last Quarter
Mar 30
New
Apr 7
First Quarter

Hourly Weather History & Observations

Time (EDT) Temp. Windchill Dew Point Humidity Pressure Visibility Wind Dir Wind Speed Gust Speed Precip Events Conditions
12:58 AM 48.7 °F - 36.5 °F 63% 29.73 in 10.0 mi SSW 5.8 mph - N/A   Clear
1:58 AM 46.9 °F - 35.4 °F 64% 29.73 in 10.0 mi SSW 5.8 mph - N/A   Clear
2:58 AM 47.8 °F - 36.1 °F 64% 29.72 in 10.0 mi SSW 9.2 mph - N/A   Scattered Clouds
3:58 AM 48.0 °F - 37.2 °F 66% 29.72 in 10.0 mi SSW 6.9 mph - N/A   Clear
4:58 AM 48.2 °F - 37.9 °F 68% 29.71 in 10.0 mi SSW 6.9 mph - N/A   Mostly Cloudy
5:58 AM 48.2 °F - 38.8 °F 70% 29.71 in 10.0 mi SW 8.1 mph - N/A   Partly Cloudy
6:58 AM 47.5 °F - 38.7 °F 71% 29.72 in 10.0 mi SW 8.1 mph - N/A   Partly Cloudy
7:58 AM 41.5 °F 37.1 °F 36.1 °F 81% 29.73 in 10.0 mi SW 6.9 mph - N/A   Mostly Cloudy
8:58 AM 45.0 °F 43.5 °F 38.7 °F 79% 29.74 in 10.0 mi SSW 3.5 mph - N/A   Partly Cloudy
9:58 AM 51.3 °F - 42.3 °F 71% 29.73 in 10.0 mi SW 3.5 mph - N/A   Clear
10:58 AM 54.5 °F - 43.3 °F 66% 29.72 in 10.0 mi SW 10.4 mph - N/A   Clear
11:58 AM 58.3 °F - 44.4 °F 60% 29.71 in 10.0 mi WSW 11.5 mph - N/A   Clear
12:58 PM 60.6 °F - 44.2 °F 55% 29.69 in 10.0 mi SSW 8.1 mph - N/A   Clear
1:58 PM 65.1 °F - 44.6 °F 47% 29.68 in 10.0 mi SW 8.1 mph - N/A   Partly Cloudy
2:58 PM 67.3 °F - 42.3 °F 40% 29.65 in 10.0 mi WSW 9.2 mph - N/A   Partly Cloudy
3:58 PM 66.7 °F - 43.3 °F 43% 29.64 in 10.0 mi SW 10.4 mph - N/A   Partly Cloudy
4:58 PM 66.6 °F - 43.5 °F 43% 29.63 in 10.0 mi SSW 8.1 mph - N/A   Partly Cloudy
5:58 PM 68.0 °F - 41.9 °F 39% 29.62 in 10.0 mi West 5.8 mph - N/A   Clear
6:58 PM 66.9 °F - 42.1 °F 40% 29.61 in 10.0 mi West 1.2 mph - N/A   Clear
7:58 PM 59.5 °F - 41.9 °F 52% 29.61 in 10.0 mi NE 2.3 mph - N/A   Clear
8:58 PM 54.3 °F - 41.2 °F 61% 29.62 in 10.0 mi North 1.2 mph - N/A   Clear
9:58 PM 54.9 °F - 42.4 °F 63% 29.63 in 10.0 mi North 2.3 mph - N/A   Scattered Clouds
10:58 PM 53.8 °F - 43.5 °F 68% 29.64 in 10.0 mi NNE 6.9 mph - N/A   Scattered Clouds
11:58 PM 52.3 °F - 44.1 °F 73% 29.61 in 10.0 mi NNE 6.9 mph - N/A   Scattered Clouds